Regional Weather Roundup
Issued by NWS

Home | Current Version | Previous Version | Graphics & Text | Print | Product List | Glossary On
Versions: 1 2 3 4 5 6 7 8 9 10 11 12 13 14 15 16 17 18 19 20 21 22 23 24 25 26 27 28 29 30 31 32 33 34 35 36 37 38 39 40 41 42 43 44 45 46 47 48 49 50
000
ASUS43 KLOT 210008
RWRIL

ILLINOIS REGIONAL WEATHER ROUNDUP
NATIONAL WEATHER SERVICE CHICAGO/ROMEOVILLE IL
700 PM CDT SUN AUG 20 2017

NOTE: "FAIR" INDICATES FEW OR NO CLOUDS BELOW 12,000 FEET WITH NO
SIGNIFICANT WEATHER AND/OR OBSTRUCTIONS TO VISIBILITY.

* THESE STATIONS ARE NOT UNDER NWS QUALITY CONTROL. THEY ALSO MAY NOT
  REPORT WEATHER SUCH AS PRECIPITATION OR FOG.

ILZ001-002-007-009-015-016-024-210100-
NORTHWEST ILLINOIS

CITY           SKY/WX    TMP DP  RH WIND       PRES   REMARKS
MOLINE         CLOUDY    80  69  69 E7        29.97F HX  83
6HR MIN TEMP:  76; 6HR MAX TEMP:  83;

STERLING*      CLOUDY    74  71  91 E5        30.00F
SAVANNA*       CLOUDY    76  70  81 E3        30.00S
$$

ILZ003-004-008-010-011-017-018-210100-
NORTH CENTRAL ILLINOIS

CITY           SKY/WX    TMP DP  RH WIND       PRES   REMARKS
ROCKFORD       CLOUDY    76  69  79 S8        30.03R
6HR MIN TEMP:  76; 6HR MAX TEMP:  82; 6HR PCP: TRACE;

FREEPORT*      CLOUDY    72  70  91 S8        30.03S
ROCHELLE*      CLOUDY    73  71  91 CALM      30.03S
DE KALB*       CLOUDY    75  71  87 SW6       30.04R
PERU*          CLOUDY    77  70  80 E3        30.01S
$$

ILZ005-006-012>014-019>023-210100-
NORTHEAST ILLINOIS

CITY           SKY/WX    TMP DP  RH WIND       PRES   REMARKS
CHICAGO-OHARE  LGT RAIN  82  68  62 S8        30.01R HX  85
6HR MIN TEMP:  81; 6HR MAX TEMP:  90; 6HR PCP: TRACE;

CHICAGO-MIDWAY LGT RAIN  84  70  62 S7        30.01R HX  88
6HR MIN TEMP:  84; 6HR MAX TEMP:  89; 6HR PCP: TRACE;

AURORA         CLOUDY    78  72  81 S7        30.03R HX  80
6HR MIN TEMP:  76; 6HR MAX TEMP:  86; 6HR PCP:  0.01;

LANSING*       DRIZZLE   79  69  70 CALM      30.02S HX  82
JOLIET*        CLOUDY    81  74  79 SW3       30.01R HX  86
WAUKEGAN       CLOUDY    75  69  81 E5        30.00S
6HR MIN TEMP:  75; 6HR MAX TEMP:  81;

DUPAGE AIRPORT CLOUDY    79  73  82 E5        30.00S HX  82
6HR MIN TEMP:  78; 6HR MAX TEMP:  86; 6HR PCP: TRACE;

KANKAKEE*      CLOUDY    79  73  81 CALM      30.04R HX  82
WHEELING       LGT RAIN  80  71  74 SE3       30.02R HX  84
6HR MIN TEMP:  80; 6HR MAX TEMP:  88; 6HR PCP: TRACE;

MORRIS*        CLOUDY    76  73  89 SE3       30.00R
ROMEOVILLE*    CLOUDY    78  70  75 S3        30.01S HX  80
NORTHERLY ISL    N/A     81  66  60 S5          N/A  HX  83
$$

LMZ740>746-210100-
SOUTHERN LAKE MICHIGAN

STATION/POSITION SKY/WX   TEMP    WIND        PRES    VSBY  WAVE
                          AIR SEA DIR/SP/G                  HT/PER
                          (F)     (DEG/KT/KT) (MB)    (MI)  (FT/S)
SOUTHERN BUOY              74 72  110/  6/  6 1016.2          1
WILMETTE HARBOR            76 74  170/  4/  6   N/A           1/ 2
HARRISON CRIB              83     180/ 10/ 10   N/A
CALUMET HARBOR             83     180/  5/  8 1016.0R
BURNS HARBOR               83     190/  8/ 10 1016.9R
MICHIGAN CITY              82     140/  6/  7   N/A
MICHIGAN CITY 6N           79 76  180/  4/  6   N/A           1
ST. JOSEPH                 80 77  180/  6/  6 1016.2          0
$$

ILZ025>027-034>036-040-047-049-050-058-095>099-210100-
WEST-CENTRAL ILLINOIS

CITY           SKY/WX    TMP DP  RH WIND       PRES   REMARKS
QUINCY         PTCLDY    83  69  62 SW8       29.99R HX  86
GALESBURG*     PTCLDY    80  71  74 SE3       29.99S HX  83
MACOMB*        CLOUDY    81  69  66 S6        30.00S HX  84
JACKSONVILLE*  PTCLDY    83  73  71 CALM      29.97F HX  88
PITTSFIELD*    PTCLDY    83  74  75 CALM      29.99F HX  89
$$

ILZ028>032-037-038-041>044-048-051>054-059>061-210100-
CENTRAL ILLINOIS

CITY           SKY/WX    TMP DP  RH WIND       PRES   REMARKS
PONTIAC        CLOUDY    79  78  97 CALM      30.01S HX  82
BLOOMINGTON    MOCLDY    82  72  71 S7        30.02S HX  87
DECATUR        PTCLDY    85  74  69 S6        30.00F HX  92
PEORIA         PTCLDY    85  74  69 SW6       29.99S HX  92
6HR MIN TEMP:  81; 6HR MAX TEMP:  88; 6HR PCP: TRACE;

LACON*         MOCLDY    82  73  75 S5        29.99S HX  87
LINCOLN*       CLOUDY    86  76  73 CALM      29.99S HX  96
SPRINGFIELD    CLOUDY    86  76  71 SW3       29.99F HX  96
6HR MIN TEMP:  86; 6HR MAX TEMP:  92;

TAYLORVILLE    CLEAR     84  75  73 S6        30.00S HX  91
6HR MIN TEMP:  84; 6HR MAX TEMP:  89;

$$

ILZ033-039-045-046-055>057-062-063-210100-
EAST-CENTRAL ILLINOIS

CITY           SKY/WX    TMP DP  RH WIND       PRES   REMARKS
CHAMPAIGN      PTCLDY    84  70  62 SE5       30.02S HX  88
RANTOUL*       MOCLDY    84  74  70 SE3       30.02S HX  91
MATTOON        MOCLDY    85  75  72 SE3       30.01S HX  93
PARIS*         CLEAR     82  73  75 SE3       30.03S HX  88
$$

ILZ079-100>102-210100-
SOUTHWEST ILLINOIS

CITY           SKY/WX    TMP DP  RH WIND       PRES   REMARKS
ALTON          PTCLDY    84  77  79 S12       30.00F HX  94
BELLEVILLE     CLEAR     86  74  68 SW7       30.00F HX  94
CAHOKIA*       PTCLDY    89  72  56 S3        29.99S HX  96
SPARTA*        CLEAR     85  70  60 SW6       30.02S HX  89
$$

ILZ064>066-069>071-074>076-080>082-084>086-088>090-092>094-210100-
SOUTH-CENTRAL ILLINOIS

CITY           SKY/WX    TMP DP  RH WIND       PRES   REMARKS
CARBONDALE     CLEAR     85  76  74 SW5       30.01S HX  94
6HR MIN TEMP:  84; 6HR MAX TEMP:  91;

CAIRO*         MOCLDY    80  71  72 CALM      30.02F HX  84
EFFINGHAM*     CLOUDY    85  71  61 CALM      30.03F HX  90
MARION         PTCLDY    88  77  70 S6        30.01F HX 100
MT. VERNON       N/A     85  75  72 SW7       30.02S HX  93
CENTRALIA*     CLEAR     86  77  74 SW5       30.00F HX  96
SALEM*         CLEAR     87  73  63 SW6       30.01F HX  95
METROPOLIS*    RAIN      85  76  75 CALM      30.03R HX  94
$$

ILZ067-068-072-073-078-083-087-091-210100-
SOUTHEAST ILLINOIS

CITY           SKY/WX    TMP DP  RH WIND       PRES   REMARKS
LAWRENCEVILLE  CLOUDY    85  67  54 CALM      30.02F HX  87
FLORA*         PTCLDY    84  74  72 SE5       30.02S HX  91
FAIRFIELD*     CLEAR     87  75  66 CALM      30.01S HX  97
HARRISBURG*    PTCLDY    86  74  67 CALM      30.02S HX  95
ROBINSON*      PTCLDY    83  71  66 S5        30.03S HX  87
CARMI*         PTCLDY    84  76  77 SW5       30.02R HX  93
$$

ABBREVIATIONS USED IN REMARKS
   TC - TEMPERATURE IN CELSIUS
  WCI - WIND CHILL INDEX
   HX - HEAT INDEX
  VSB - VISIBILITY
$$





USA.gov is the U.S. government's official web portal to all federal, state and local government web resources and services.